Regional Weather Roundup
Issued by NWS

Home | Current Version | Previous Version | Text Only | Print | Product List | Glossary On
Versions: 1 2 3 4 5 6 7 8 9 10 11 12 13 14 15 16 17 18 19 20 21 22 23 24 25 26 27 28 29 30 31 32 33 34 35 36 37 38 39 40 41 42 43 44 45 46 47 48 49 50
000
ASCA42 TJSJ 291510
RWRPR
PUERTO RICO/U.S. VIRGIN ISLANDS HOURLY WEATHER ROUNDUP
NATIONAL WEATHER SERVICE SAN JUAN PR
1100 AM AST SUN MAR 29 2015

PRZ001-004-291600-
PUERTO RICO

CITY           SKY/WX    TMP DP  RH WIND       PRES   REMARKS
SAN JUAN LMM   MOSUNNY   86  72  62 E15       30.12F HX  92
AGUADILLA      SUNNY     84  66  54 NE10      30.14S
CEIBA          SUNNY     82  70  65 E13       30.16S
$$

PRZ006-007-291600-
U.S. VIRGIN ISLANDS

CITY           SKY/WX    TMP DP  RH WIND       PRES   REMARKS
$$

HOURLY WEATHER ROUNDUP FOR THE NEWS MEDIA

CITY           SKY/WX    TMP DP  RH WIND       PRES   REMARKS
ORLANDO        SUNNY     62  34  35 N12       30.37R
NEW YORK       MOSUNNY   36   1  22 N15       30.29S WCI  27
NEWARK         MOSUNNY   36   0  21 NW9       30.30S WCI  29
CHICAGO        CLOUDY    36  17  46 S20G33    30.04F WCI  25
HARTFORD       SUNNY     32  14  47 N6G17     30.20R WCI  26
BOSTON         SUNNY     35   4  27 N6        30.21F WCI  30
DALLAS         SUNNY     64  48  55 S15       30.05S
PHILADELPHIA   SUNNY     35   6  29 N9G18     30.35R WCI  28
LOS ANGELES    FOG       57  57 100 NE7       30.06S VSB 1/2
WASHINGTON DC  SUNNY     32   7  35 N10       30.41R WCI  24


USA.gov is the U.S. government's official web portal to all federal, state and local government web resources and services.